Regional Weather Roundup
Issued by NWS

Home | Current Version | Previous Version | Graphics & Text | Print | Product List | Glossary On
Versions: 1 2 3 4 5 6 7 8 9 10 11 12 13 14 15 16 17 18 19 20 21 22 23 24 25 26 27 28 29 30 31 32 33 34 35 36 37 38 39 40 41 42 43 44 45 46 47 48 49 50
000
ASUS45 KCYS 260410
RWRWY

WYOMING REGIONAL WEATHER ROUNDUP
NATIONAL WEATHER SERVICE CHEYENNE WY
1000 PM MDT MON MAY 25 2015

NOTE:  "FAIR" INDICATES FEW OR NO CLOUDS BELOW 12,000 FEET
WITH NO SIGNIFICANT WEATHER AND/OR OBSTRUCTIONS TO VISIBILITY.

WYZ001-260500-
YELLOWSTONE NATIONAL PARK

CITY           SKY/WX    TMP DP  RH WIND       PRES   REMARKS
LK YELLOWSTONE   N/A     38  36  92 CALM      30.07R
W YELLOWSTONE  NOT AVBL

$$
WYZ002>013-054>058-071-098>099-260500-
NORTHERN WYOMING

CITY           SKY/WX    TMP DP  RH WIND       PRES   REMARKS
JACKSON        FAIR      48  39  71 SW5       30.02R
CODY           CLOUDY    54  45  71 CALM      29.95R
GREYBULL       FAIR      58  48  69 S6        29.91R
WORLAND        FAIR      52  48  86 S8        29.93R
SHERIDAN       FAIR      50  47  89 S3        29.94R
BUFFALO        FAIR      48  45  89 S6        29.98R
GILLETTE       FAIR      51  49  92 CALM      29.96R
HULETT         CLOUDY    50  48  93 CALM      29.97R
NEWCASTLE      CLOUDY    52  46  82 CALM      29.95R

$$
WYZ014>020-022>026-101>103-260500-
CENTRAL WYOMING

CITY           SKY/WX    TMP DP  RH WIND       PRES   REMARKS
BIG PINEY      FAIR      46  39  76 SE7       30.06R
PINEDALE       MOCLDY    45  39  81 CALM      30.07R
DUBOIS         FAIR      43  37  81 CALM      30.05R
LANDER         FAIR      52  44  74 SW9       29.98R
RIVERTON       FAIR      52  45  77 S6        30.00R
CASPER         MOCLDY    48  44  86 W5        29.99R
DOUGLAS        CLOUDY    52  48  86 NW3       29.98R

$$
WYZ021-027>030-104>119-260500-
SOUTHERN WYOMING

CITY           SKY/WX    TMP DP  RH WIND       PRES   REMARKS
EVANSTON       FAIR      43  40  89 S7        30.08R
KEMMERER       FAIR      43  37  81 SW6       30.08R
FORT BRIDGER   CLEAR     46  43  87 SW6       30.10R
ROCK SPRINGS   FAIR      46  41  82 SE8       30.06R
DIXON          FAIR      46  43  89 CALM      30.10R
RAWLINS        FAIR      45  40  82 CALM      30.06R
SARATOGA       MOCLDY    43  41  93 MISG      30.08S
LARAMIE        FAIR      42  39  89 W3        30.05R
CHEYENNE       MOCLDY    50  41  71 NW8       30.02R
TORRINGTON     MOCLDY    51  50  96 NW7       29.94R
PINE BLUFFS    FAIR      46  45  93 NW7       29.99R

$$



USA.gov is the U.S. government's official web portal to all federal, state and local government web resources and services.